GW4074 Weather Reports


time (UTC)temp
C
wind
direction
speed
KPH
gust
KPH
rain 1hr
cm
rain 24hr
cm
rain mn
cm
humidity
%
barometer
mb
20260504180657 22 180 4.8 9.7 0.00 0.00 0.00 44 1011.1
20260504180155 22 168 3.2 9.7 0.00 0.00 0.00 44 1011.2
20260504175652 22 122 3.2 6.4 0.00 0.00 0.00 48 1011.1
20260504175148 22 180 0.0 4.8 0.00 0.00 0.00 47 1010.9
20260504174647 21 126 6.4 8.0 0.00 0.00 0.00 48 1011.2
20260504174143 22 148 3.2 6.4 0.00 0.00 0.00 47 1011.0
20260504173640 21 116 3.2 4.8 0.00 0.00 0.00 50 1010.9
20260504173138 21 168 3.2 6.4 0.00 0.00 0.00 48 1011.0
20260504172634 21 139 4.8 9.7 0.00 0.00 0.00 48 1010.9
20260504172131 22 52 4.8 4.8 0.00 0.00 0.00 42 1011.1
20260504171627 22 149 3.2 9.7 0.00 0.00 0.00 41 1011.0
20260504171125 22 205 1.6 4.8 0.00 0.00 0.00 48 1011.1
20260504170620 22 227 0.0 3.2 0.00 0.00 0.00 40 1011.0
20260504170118 22 135 0.0 6.4 0.00 0.00 0.00 41 1011.1
20260504151004 18 89 0.0 11.3 0.00 0.00 0.00 48 1010.4
20260504150501 18 121 8.0 8.0 0.00 0.00 0.00 48 1010.4
20260504140922 18 119 6.4 11.3 0.00 0.00 0.00 49 1010.1
20260504140418 17 107 3.2 6.4 0.00 0.00 0.00 50 1010.1
20260504130344 16 115 3.2 6.4 0.00 0.00 0.00 39 1009.7
20260504120306 17 359 3.2 3.2 0.00 0.00 0.00 39 1009.8
20260504110230 18 359 1.6 3.2 0.00 0.00 0.00 33 1010.1
20260504100147 17 19 3.2 4.8 0.00 0.00 0.00 40 1009.9
20260504090110 19 299 0.0 4.8 0.00 0.00 0.00 33 1010.0
20260504081540 18 34 4.8 6.4 0.00 0.00 0.00 37 1010.0
20260504081036 18 6 4.8 6.4 0.00 0.00 0.00 37 1009.8
20260504080533 19 350 3.2 4.8 0.00 0.00 0.00 36 1009.9
20260504050347 20 34 3.2 4.8 0.00 0.00 0.00 33 1010.7
20260504045844 20 23 3.2 4.8 0.00 0.00 0.00 32 1010.7
20260504045343 20 8 1.6 3.2 0.00 0.00 0.00 32 1010.7
20260504044841 20 22 4.8 4.8 0.00 0.00 0.00 32 1010.5
20260504044338 20 335 3.2 3.2 0.00 0.00 0.00 34 1010.5
20260504043835 20 322 4.8 4.8 0.00 0.00 0.00 32 1010.7
20260504043332 20 353 3.2 4.8 0.00 0.00 0.00 33 1010.7
20260504042830 20 328 4.8 6.4 0.00 0.00 0.00 32 1010.4
20260504042326 20 322 6.4 8.0 0.00 0.00 0.00 33 1010.5
20260504041822 19 340 3.2 8.0 0.00 0.00 0.00 34 1010.8
20260504041318 19 355 3.2 6.4 0.00 0.00 0.00 34 1010.5
20260504040815 20 335 4.8 6.4 0.00 0.00 0.00 34 1010.4
20260504040313 20 16 3.2 6.4 0.00 0.00 0.00 33 1010.4
20260504035808 20 346 3.2 4.8 0.00 0.00 0.00 31 1010.3
20260504035306 20 357 3.2 6.4 0.00 0.00 0.00 31 1010.3
20260504034803 20 342 4.8 6.4 0.00 0.00 0.00 32 1010.3
20260504034300 20 334 3.2 6.4 0.00 0.00 0.00 31 1010.3
20260504033757 21 342 3.2 6.4 0.00 0.00 0.00 31 1010.4
20260504033255 21 324 4.8 6.4 0.00 0.00 0.00 31 1010.4
20260504032751 21 326 4.8 8.0 0.00 0.00 0.00 32 1010.5
20260504032248 21 324 4.8 6.4 0.00 0.00 0.00 33 1010.2
20260504031745 21 328 4.8 6.4 0.00 0.00 0.00 33 1010.3
20260504031243 21 355 1.6 6.4 0.00 0.00 0.00 32 1010.5
20260504030738 21 329 4.8 6.4 0.00 0.00 0.00 30 1010.4
20260504030236 22 339 3.2 6.4 0.00 0.00 0.00 30 1010.5
20260504025732 22 336 3.2 6.4 0.00 0.00 0.00 29 1010.4
20260504025229 22 320 4.8 6.4 0.00 0.00 0.00 29 1010.8
20260504024726 22 336 4.8 6.4 0.00 0.00 0.00 29 1010.5
20260504024223 22 345 3.2 6.4 0.00 0.00 0.00 28 1010.9
20260504023720 22 357 1.6 4.8 0.00 0.00 0.00 30 1010.8
20260504023215 22 11 0.0 4.8 0.00 0.00 0.00 29 1010.8
20260504022712 23 320 1.6 3.2 0.00 0.00 0.00 30 1010.9
20260504022208 23 320 0.0 3.2 0.00 0.00 0.00 29 1010.9
20260504021706 23 326 3.2 4.8 0.00 0.00 0.00 28 1011.0
20260504021202 23 5 1.6 4.8 0.00 0.00 0.00 29 1010.8
20260504020659 23 229 1.6 3.2 0.00 0.00 0.00 31 1010.9
20260504020155 23 339 3.2 3.2 0.00 0.00 0.00 30 1011.0
20260504015652 23 263 0.0 3.2 0.00 0.00 0.00 30 1011.2
20260504015148 23 152 3.2 3.2 0.00 0.00 0.00 29 1011.1
20260504014644 23 235 0.0 4.8 0.00 0.00 0.00 31 1011.1
20260504014141 23 286 0.0 4.8 0.00 0.00 0.00 32 1011.2
20260504013634 23 354 1.6 3.2 0.00 0.00 0.00 32 1011.2
20260504013131 23 230 3.2 4.8 0.00 0.00 0.00 33 1011.2
20260504012628 24 48 1.6 3.2 0.00 0.00 0.00 32 1011.3
20260504012126 24 183 3.2 8.0 0.00 0.00 0.00 32 1011.3
20260504011622 24 286 3.2 6.4 0.00 0.00 0.00 33 1011.3
20260504011119 25 16 3.2 6.4 0.00 0.00 0.00 32 1011.5
20260504010614 25 297 3.2 8.0 0.00 0.00 0.00 33 1011.5
20260504010111 25 273 1.6 3.2 0.00 0.00 0.00 32 1011.4
20260504005608 26 293 0.0 3.2 0.00 0.00 0.00 30 1011.5
20260504005105 26 232 1.6 4.8 0.00 0.00 0.00 29 1011.7
20260504004603 27 153 1.6 6.4 0.00 0.00 0.00 29 1011.6
20260504004059 27 262 3.2 4.8 0.00 0.00 0.00 29 1011.3
20260504003554 27 211 3.2 4.8 0.00 0.00 0.00 29 1011.7
20260504003051 27 0 1.6 4.8 0.00 0.00 0.00 29 1011.7
20260504002549 27 353 1.6 3.2 0.00 0.00 0.00 31 1011.5
20260504002046 26 44 0.0 3.2 0.00 0.00 0.00 29 1011.6
20260504001544 26 116 3.2 4.8 0.00 0.00 0.00 30 1011.8
20260504001039 27 0 0.0 4.8 0.00 0.00 0.00 30 1011.7
20260504000537 27 243 0.0 6.4 0.00 0.00 0.00 28 1011.6
20260504000034 27 249 4.8 4.8 0.00 0.00 0.00 27 1011.8
20260503235533 27 204 3.2 6.4 0.00 0.00 0.00 27 1011.8
20260503235029 27 256 3.2 6.4 0.00 0.00 0.00 28 1011.8
20260503234527 26 287 1.6 6.4 0.00 0.00 0.00 28 1012.0
20260503234025 26 227 3.2 8.0 0.00 0.00 0.00 28 1012.1
20260503233521 26 304 3.2 4.8 0.00 0.00 0.00 29 1011.9
20260503233017 27 310 3.2 6.4 0.00 0.00 0.00 27 1011.9
20260503232514 27 275 3.2 4.8 0.00 0.00 0.00 27 1012.0
20260503232012 27 230 1.6 4.8 0.00 0.00 0.00 27 1012.1
20260503231510 27 237 4.8 4.8 0.00 0.00 0.00 28 1012.1
20260503231006 27 230 1.6 3.2 0.00 0.00 0.00 27 1012.2
20260503230503 26 343 1.6 4.8 0.00 0.00 0.00 28 1012.4
20260503230000 26 281 0.0 4.8 0.00 0.00 0.00 28 1012.3
20260503225456 27 327 1.6 3.2 0.00 0.00 0.00 28 1012.4
20260503224952 26 188 0.0 4.8 0.00 0.00 0.00 27 1012.4
20260503224449 27 269 1.6 3.2 0.00 0.00 0.00 29 1012.4
20260503223947 26 328 0.0 3.2 0.00 0.00 0.00 29 1012.6
20260503223445 26 248 0.0 4.8 0.00 0.00 0.00 30 1012.7
20260503222940 26 299 3.2 6.4 0.00 0.00 0.00 30 1012.7
20260503222439 26 247 3.2 4.8 0.00 0.00 0.00 30 1013.0
20260503221936 26 267 1.6 4.8 0.00 0.00 0.00 31 1012.9
20260503221434 25 334 3.2 8.0 0.00 0.00 0.00 31 1012.9
20260503220931 25 311 1.6 6.4 0.00 0.00 0.00 32 1012.9
20260503220427 25 345 4.8 6.4 0.00 0.00 0.00 33 1013.0
20260503215924 25 13 1.6 6.4 0.00 0.00 0.00 33 1013.1
20260503215421 25 268 3.2 8.0 0.00 0.00 0.00 33 1012.9
20260503214919 25 342 1.6 8.0 0.00 0.00 0.00 33 1013.0
20260503214416 25 341 3.2 6.4 0.00 0.00 0.00 33 1013.1
20260503213914 25 2 1.6 9.7 0.00 0.00 0.00 32 1013.1
20260503213411 25 297 1.6 9.7 0.00 0.00 0.00 33 1013.2
20260503212908 25 309 3.2 8.0 0.00 0.00 0.00 34 1013.1
20260503212406 25 295 4.8 6.4 0.00 0.00 0.00 36 1013.1
20260503211902 25 348 6.4 8.0 0.00 0.00 0.00 35 1013.4
20260503211359 24 343 0.0 9.7 0.00 0.00 0.00 35 1013.3
20260503210854 25 302 6.4 6.4 0.00 0.00 0.00 34 1013.3
20260503210352 25 358 3.2 9.7 0.00 0.00 0.00 35 1013.2
20260503205847 25 248 3.2 9.7 0.00 0.00 0.00 33 1013.4
20260503205344 25 336 8.0 8.0 0.00 0.00 0.00 34 1013.4
20260503204840 25 260 3.2 6.4 0.00 0.00 0.00 33 1013.4
20260503204337 25 333 4.8 9.7 0.00 0.00 0.00 34 1013.4
20260503203835 25 218 3.2 9.7 0.00 0.00 0.00 34 1013.5
20260503203332 25 329 6.4 8.0 0.00 0.00 0.00 35 1013.5
20260503202829 25 241 4.8 8.0 0.00 0.00 0.00 35 1013.5
20260503202327 25 331 4.8 8.0 0.00 0.00 0.00 35 1013.5
20260503201825 25 350 3.2 8.0 0.00 0.00 0.00 34 1013.5
20260503201321 25 143 0.0 6.4 0.00 0.00 0.00 34 1013.7
20260503200819 25 353 4.8 8.0 0.00 0.00 0.00 35 1013.6
20260503200315 24 339 4.8 8.0 0.00 0.00 0.00 36 1013.8
20260503195812 23 343 4.8 9.7 0.00 0.00 0.00 37 1013.8
20260503195309 23 281 1.6 6.4 0.00 0.00 0.00 38 1013.8
20260503194806 23 284 4.8 11.3 0.00 0.00 0.00 37 1014.0
20260503194302 23 345 8.0 9.7 0.00 0.00 0.00 38 1014.1
20260503193758 23 320 4.8 9.7 0.00 0.00 0.00 38 1014.3
20260503193254 23 213 1.6 6.4 0.00 0.00 0.00 39 1014.0
20260503192750 23 312 4.8 9.7 0.00 0.00 0.00 39 1014.2
20260503192245 23 344 9.7 9.7 0.00 0.00 0.00 40 1014.2
20260503191743 22 205 0.0 8.0 0.00 0.00 0.00 43 1014.2
20260503191239 22 4 3.2 11.3 0.00 0.00 0.00 43 1014.2
20260503190731 22 359 6.4 9.7 0.00 0.00 0.00 43 1014.2
20260503190227 22 347 8.0 11.3 0.00 0.00 0.00 42 1014.3
20260503185725 22 338 6.4 11.3 0.00 0.00 0.00 45 1014.3
20260503185221 22 336 6.4 6.4 0.00 0.00 0.00 45 1014.4
20260503184716 22 357 6.4 9.7 0.00 0.00 0.00 43 1014.2
20260503184212 22 46 1.6 8.0 0.00 0.00 0.00 43 1014.6
20260503183709 22 249 3.2 4.8 0.00 0.00 0.00 43 1014.4
20260503183206 22 5 1.6 4.8 0.00 0.00 0.00 43 1014.4
20260503182704 22 344 6.4 6.4 0.00 0.00 0.00 43 1014.4
20260503182203 22 42 3.2 4.8 0.00 0.00 0.00 44 1014.7
20260503181658 22 339 1.6 4.8 0.00 0.00 0.00 45 1014.4
20260503181155 22 0 3.2 6.4 0.00 0.00 0.00 45 1014.6